#timestamp,LO_Frequency,Hit,StdDev 
1593626415.9,286047002.4,N
1593626435.7,286047002.3,N
1593626455.6,286047000.3,N
1593626475.4,286047002.8,N
1593626495.2,286047002.2,N
1593626515.1,286046998.3,N
1593626516.0,286046998.3,N
1593626535.8,286046998.8,N
1593626555.6,286046999.4,N
1593626575.5,286046999.9,N
1593626595.3,286047002.2,N
1593626615.2,286047000.9,N
1593626635.9,286046999.8,N
1593626655.7,286047001.3,N
1593626675.6,286047004.2,N
1593626695.4,286047004.0,N
1593626715.2,286047004.2,N
1593626735.1,286047003.5,N
1593626736.0,286047003.5,N
1593626755.8,286047001.4,N
1593626775.7,286047004.4,N
1593626795.5,286047001.9,N
1593626815.3,286047002.7,N
1593626835.2,286047001.1,N
1593626855.0,286046996.9,N
1593626855.9,286046996.9,N
1593626875.8,286046996.5,N
1593626895.6,286046998.7,N
1593626915.4,286046998.5,N
1593626935.3,286046999.7,N
1593626955.1,286047004.1,N
1593626975.8,286047001.8,N
1593626995.7,286047001.8,N
1593627015.5,286047000.5,N
1593627035.4,286047002.7,N
1593627055.2,286047001.7,N
1593627075.0,286047004.1,N
1593627075.9,286047004.1,N
1593627095.8,286046999.9,N
1593627115.6,286047001.6,N
1593627135.5,286047002.0,N
1593627155.3,286046998.3,N
1593627175.1,286047000.7,N
1593627195.9,286047003.8,N
1593627215.7,286047007.3,Y
1593627235.5,286047006.3,P
1593627255.4,286047006.4,N
1593627275.2,286047006.9,P
1593627295.1,286047005.5,N
1593627296.0,286047005.5,N
1593627315.8,286047007.0,Y
1593627335.6,286047000.5,P
1593627355.5,286046999.8,N
1593627375.3,286047002.7,N
1593627395.2,286047000.6,N
1593627415.9,286047000.8,N
1593627435.7,286046996.6,N
1593627455.6,286046995.6,N
1593627475.4,286046995.2,N
1593627495.2,286046995.4,N
1593627515.1,286046998.0,N
1593627516.0,286046998.0,N
1593627535.8,286046997.8,N
1593627555.7,286046998.0,N
1593627575.5,286046995.6,N
1593627595.3,286046993.6,N
1593627615.2,286046995.8,N
1593627635.0,286046996.0,N
1593627635.9,286046996.0,N
1593627655.8,286046994.8,N
1593627675.6,286046992.5,N
1593627695.4,286046994.5,N
1593627715.3,286046992.4,N
1593627735.1,286046994.0,N
1593627755.8,286046992.9,N
1593627775.7,286046994.3,N
1593627795.5,286046991.8,N
1593627815.4,286046993.7,N
1593627835.2,286046993.6,N
1593627855.0,286046993.4,N
1593627855.9,286046993.4,N
1593627875.8,286046994.7,N
1593627895.6,286046994.1,N
1593627915.5,286046992.5,N
1593627935.3,286046996.0,N
1593627955.1,286046994.2,N
1593627975.9,286046994.7,Y
1593627995.7,286046996.6,P
1593628015.6,286046996.5,P
1593628035.4,286046998.8,N
1593628055.2,286046999.1,N
1593628075.1,286046999.3,N
1593628076.0,286046999.3,N
1593628095.8,286046998.3,N
1593628115.6,286046997.7,N
1593628135.5,286046997.7,N
1593628155.3,286046997.4,N
1593628175.2,286046998.3,N
1593628195.9,286046997.3,N
1593628215.7,286046999.3,N
1593628235.6,286046999.4,N
1593628255.4,286046996.7,N
1593628275.2,286046996.7,N
1593628295.1,286046996.9,N
1593628296.0,286046996.9,N
1593628315.8,286046996.8,N
1593628335.7,286046998.0,N
1593628355.5,286046995.0,Y
1593628375.3,286046999.4,P
1593628395.2,286047000.6,N
1593628415.0,286047002.1,N
1593628415.9,286047002.1,N
1593628435.8,286047000.3,N
1593628455.6,286046998.6,N
1593628475.4,286046999.1,N
1593628495.3,286046999.0,N
1593628515.1,286047001.1,N
1593628535.8,286046998.7,N
1593628555.7,286047002.2,N
1593628575.5,286047000.4,N
1593628595.4,286047000.7,N
1593628615.2,286047001.0,N
1593628635.0,286046999.7,N
1593628635.9,286046999.7,N
1593628655.8,286047002.6,N
1593628675.6,286047011.9,Y
1593628695.4,286046999.3,P
1593628715.3,286046996.9,P
1593628735.1,286046996.5,N
1593628755.9,286046999.4,N
1593628775.7,286046996.8,N
1593628795.5,286046997.5,N
1593628815.4,286046999.1,N
1593628835.2,286046998.6,N
1593628855.1,286046998.4,N
1593628856.0,286046998.4,N
1593628875.8,286046998.3,N
1593628895.6,286046997.0,N
1593628915.5,286046999.6,N
1593628935.3,286046998.3,N
1593628955.1,286047000.9,N
1593628975.9,286047001.8,N
1593628995.7,286047000.7,N
1593629015.6,286047002.4,N
1593629035.4,286047002.3,N
1593629055.2,286047000.4,N
1593629075.1,286047000.7,N
1593629076.0,286047000.7,N
1593629095.8,286046998.5,N
1593629115.6,286046999.8,N
1593629135.5,286047002.7,N
1593629155.3,286046998.9,N
1593629175.2,286046998.6,N
1593629195.9,286046999.1,N
1593629215.7,286046999.2,N
1593629235.6,286046998.3,N
1593629255.4,286047001.0,N
1593629275.2,286046999.5,N
1593629295.1,286047002.7,N
1593629296.0,286047002.7,N
1593629315.8,286046998.3,N
1593629335.7,286046998.5,N
1593629355.5,286046998.9,N
1593629375.3,286046996.5,N
1593629395.2,286047000.6,N
1593629415.0,286047000.6,N
1593629415.9,286047000.6,N
1593629435.8,286046999.7,N
1593629455.6,286047000.6,N
1593629475.4,286046998.2,N
1593629495.3,286047001.0,N
1593629515.1,286047000.7,N
1593629535.8,286046998.2,N
1593629555.7,286046998.7,N
1593629575.5,286047001.2,N
1593629595.4,286046998.1,N
1593629615.2,286047000.8,N
1593629635.0,286047001.2,N
1593629635.9,286047001.2,N
1593629655.8,286047000.6,N
1593629675.6,286046999.8,N
1593629695.4,286046998.8,N
1593629715.3,286046999.5,N
1593629735.1,286046996.5,N
1593629755.9,286046996.5,N
1593629775.7,286046996.5,N
1593629795.5,286046999.5,N
1593629815.4,286046998.9,N
1593629835.2,286046999.3,N
1593629855.1,286046999.2,N
1593629856.0,286046999.2,N
1593629875.8,286046996.6,N
1593629895.6,286046998.5,N
1593629915.5,286047002.8,N
1593629935.3,286047000.5,N
1593629955.1,286047002.4,N
1593629975.9,286046998.3,N
1593629995.7,286046999.6,N
